Location: Düngen
(52.0952°N, 10.0219°E)
Time: 19:35:32
(UTC+00:00)

SL-24 DEB - Pass Details

Date: 11 March 2026
Orbit: 632 x 657 km, 92.0° (Epoch: 20 April)

Event Time Altitude Azimuth Distance (km) Brightness Sun altitude
Rises 18:44:01 0° 5° (N) 2,982 7.7 -14.1°
Reaches altitude 10° 18:46:15 10° 6° (N) 2,070 6.8 -14.4°
Maximum altitude 18:50:48 82° 93° (E) 668 4.1 -15.1°
Drops below altitude 10° 18:55:22 10° 183° (S) 2,065 6.6 -15.7°
Sets 18:57:35 0° 184° (S) 2,974 7.4 -16.1°
